Location: Apalco
(33.3585°N, 93.4602°W)
Time: 04:56:25
(UTC+00:00)

X-37B - Visible Passes

Search period start: 18 September 2021 00:00
Search period end: 28 September 2021 00:00
Orbit: 381 x 393 km, 45.0° (Epoch: 29 August)

Date Brightness Start Highest point End Pass type
(mag) Time Alt. Az. Time Alt. Az. Time Alt. Az.
19 Sep 1.7 10:45:56 22° SSW 10:47:26 37° SE 10:50:24 10° ENE visible
20 Sep 3.6 09:50:37 14° ESE 09:50:37 14° ESE 09:51:25 10° E visible
20 Sep 1.1 11:22:55 12° WSW 11:25:37 44° NNW 11:28:40 10° NE visible
21 Sep 0.7 10:27:30 72° ENE 10:27:30 72° ENE 10:30:23 10° ENE visible
22 Sep 2.1 11:04:16 19° WNW 11:05:36 25° NNW 11:08:18 10° NE visible
23 Sep 2.8 10:08:40 23° NNE 10:08:40 23° NNE 10:10:08 10° NE visible
24 Sep 2.6 10:45:19 17° NNW 10:45:39 17° NNW 10:47:49 10° NNE visible
25 Sep 3.9 09:49:38 11° NNE 09:49:38 11° NNE 09:49:45 10° NE visible
25 Sep 3.3 11:23:43 10° NNW 11:24:29 11° N 11:25:16 10° N visible
26 Sep 3.3 10:26:12 12° N 10:26:12 12° N 10:27:17 10° NNE visible
27 Sep 3.5 11:04:35 10° N 11:04:41 10° N 11:04:48 10° N visible
